Regional Weather Roundup
Issued by NWS State College, PA

Home | Current Version | Previous Version | Text Only | Print | Product List | Glossary On
Versions: 1 2 3 4 5 6 7 8 9 10 11 12 13 14 15 16 17 18 19 20 21 22 23 24 25 26 27 28 29 30 31 32 33 34 35 36 37 38 39 40 41 42 43 44 45 46 47 48 49 50
000
ASUS41 KCTP 291710
RWRCTP

REGIONAL WEATHER ROUNDUP
NATIONAL WEATHER SERVICE STATE COLLEGE PA
100 PM EDT TUE JUL 29 2014

Note: "fair" indicates few or no clouds below 12,000 feet with no
significant weather and/or obstructions to visibility.

* = STATION THAT DOES NOT REPORT PRECIPITATION /E.G. RAIN...SNOW...ETC/
    THUNDER OR FOG.

PAZ002>004-007>009-013>016-020>023-029>032-291800-
WESTERN PENNSYLVANIA

CITY           SKY/WX    TMP DP  RH WIND       PRES   REMARKS
ERIE           PTSUNNY   66  49  54 VRB7      29.99S
MEADVILLE      CLOUDY    63  48  58 NW7       30.01R
FRANKLIN*      CLOUDY    63  48  59 W3        30.01F
NEW CASTLE       N/A     64  52  65 CALM      30.03R
BEAVER COUNTY  NOT AVBL
BUTLER*        CLOUDY    63  52  67 W6        30.03S
PITTSBURGH INT CLOUDY    64  49  57 NW3       30.02S
PITTSBURGH     CLOUDY    63  51  65 VRB5      30.01S
INDIANA*       CLOUDY    63  50  63 W5G12     30.04F
LATROBE        PTSUNNY   63  52  67 W6        30.02F
WASHINGTON CO* PTSUNNY   64  52  63 W7        30.03F
$$

PAZ004>006-010>012-017>019-024>028-033>037-041-042-045-046-049>053-291800-
CENTRAL PENNSYLVANIA

CITY           SKY/WX    TMP DP  RH WIND       PRES   REMARKS
BRADFORD       CLOUDY    59  48  67 NW7       29.99S
DUBOIS         CLOUDY    63  50  62 W8        29.98F
CLEARFIELD     CLOUDY    60  50  69 W5        29.99S
JOHNSTOWN      CLOUDY    58  44  60 NW9       30.01S
ALTOONA          N/A    N/A N/A N/A N10       29.99S
STATE COLLEGE  CLOUDY    63  46  55 NW14      29.97S
WILLIAMSPORT   PTSUNNY   70  46  42 W6        29.92S
SELINSGROVE    CLOUDY    69  53  56 NW3       29.94S
FT INDIANTOWN  PTSUNNY   70  55  57 VRB5      29.93R
CAPITAL CITY   CLOUDY    70  53  54 NW6       29.93R
HARRISBURG     CLOUDY    70  55  59 NW9       29.92S
YORK           PTSUNNY   69  56  62 N6        29.93S
$$

PAZ038>040-043-044-047-048-054-055-060>062-067>071-291800-
EASTERN PENNSYLVANIA

CITY           SKY/WX    TMP DP  RH WIND       PRES   REMARKS
SCRANTON       CLOUDY    68  45  43 W8        29.92S
MOUNT POCONO   PTSUNNY   65  47  52 NW12      29.93S
ALLENTOWN      PTSUNNY   73  50  44 W10G16    29.90S
QUAKERTOWN*    MOSUNNY   72  52  49 NW7       29.91F
READING        PTSUNNY   73  54  51 NW7       29.90F
LANCASTER      CLOUDY    70  56  61 NW8       29.92S
COATESVILLE    PTSUNNY   70  70 100 W3        29.93R
POTTSTOWN      CLOUDY    71  54  54 NW6       29.92S
BLUE BELL      MOSUNNY   72  54  53 N5        29.90S
DOYLESTOWN     MOSUNNY   72  54  53 N13       29.89F
WILLOW GROVE   NOT AVBL
NORTH PHILA    MOSUNNY   75  52  44 NW9       29.91S
PHILADELPHIA   MOSUNNY   73  52  47 VRB5      29.90S
$$



USA.gov is the U.S. government's official web portal to all federal, state and local government web resources and services.